Temp
18 18 19 19 19 19 19 20 20 20 20 20 21 21 21 21 22 22 22 22 22 22 22 22 22 22 23 23 23 23 23 23 22 22 23 25 26 25 25 24 24 24 23 23 22 23 24 24 25 24 24 24 24 25 24 24 24 24 25 24 24 25 27 28 28 28 28 28 28 28 28 27 27 27 26 25 25 26 26 27 28 28 28 28 28 28 25 23
18 18 19 20 19 20 20 20 20 20 20 20 21 21 21 21 22 22 22 22 22 22 22 22 22 22 22 23 23 23 23 23 21 23 24 26 26 25 25 24 24 24 23 23 23 25 25 25 25 25 25 25 25 24 24 24 24 24 25 25 25 27 28 29 29 29 29 28 28 28 28 27 27 27 27 25 26 27 27 28 28 29 29 29 29 28 26 24
19 19 20 20 20 20 20 20 21 20 20 20 21 21 21 21 21 21 22 22 22 22 22 22 22 22 22 22 22 23 22 22 23 25 26 26 26 25 25 24 24 23 23 23 24 25 26 26 26 25 25 25 25 25 24 24 24 25 25 24 26 28 28 29 28 28 28 28 27 27 27 27 26 27 26 25 25 26 26 27 28 29 30 30 30 29 28 26
19 19 19 20 20 20 20 21 21 21 21 21 21 21 21 21 21 22 22 22 22 22 22 22 22 22 22 22 22 23 21 22 25 27 26 25 25 25 25 24 23 23 23 23 24 25 25 26 26 25 25 25 26 25 24 25 24 25 25 24 27 28 28 28 28 28 28 27 26 26 26 26 26 26 26 25 25 26 27 28 29 29 30 31 30 30 30 28
18 18 19 19 20 20 21 21 21 21 21 20 21 21 21 20 20 21 21 22 22 22 22 21 21 21 21 21 22 22 21 23 26 26 25 25 25 24 25 24 23 22 22 22 24 24 24 26 26 25 25 25 26 25 25 26 25 25 25 25 27 27 27 28 28 27 26 26 25 25 25 26 26 25 25 25 24 25 28 29 30 30 30 30 30 30 29 28
16 17 18 19 19 20 20 21 21 21 20 19 20 20 20 20 20 20 20 21 21 21 21 21 21 21 21 21 22 22 22 25 26 25 25 25 24 24 24 24 23 22 21 22 24 24 25 25 25 24 25 25 26 25 26 27 25 24 25 26 27 27 27 27 28 25 24 25 24 25 26 26 25 24 25 25 25 26 27 28 29 29 29 29 29 29 28 27
15 16 18 18 19 19 20 20 20 19 18 18 19 19 19 19 19 20 20 20 21 21 21 21 21 21 21 21 21 21 23 25 26 26 25 25 24 24 24 23 22 21 22 23 24 24 25 25 25 25 25 25 26 26 27 27 25 24 25 26 26 27 26 26 27 25 24 24 24 25 25 25 24 24 26 26 26 27 27 28 28 28 29 28 28 28 28 27
14 15 17 17 18 19 19 19 18 17 17 18 18 18 18 19 19 19 20 20 20 20 20 20 20 20 20 20 21 22 24 25 26 26 25 25 24 23 23 23 22 21 22 24 25 25 25 25 25 25 25 25 26 26 26 25 25 24 24 26 26 26 26 25 25 25 24 24 24 24 24 24 25 25 25 25 26 27 27 27 27 28 28 28 28 28 28 27
13 15 15 15 16 17 17 17 17 17 17 17 17 18 18 18 18 19 19 19 20 20 20 20 19 19 19 19 21 23 24 25 26 25 24 24 23 23 23 22 21 21 22 24 25 25 25 25 26 26 25 26 26 25 25 24 24 25 25 25 25 25 25 25 25 25 24 24 24 23 23 24 25 25 25 25 27 27 28 27 28 28 28 28 28 27 27 27
12 14 13 13 15 15 15 16 16 16 17 17 17 17 17 18 18 18 18 19 19 20 20 19 19 19 18 19 21 23 24 25 25 24 24 23 22 22 22 21 21 21 23 24 25 25 25 25 26 25 24 25 25 24 25 24 24 24 24 24 24 24 25 25 25 25 25 25 24 23 23 24 25 25 24 26 28 28 28 28 28 28 28 28 28 28 28 27
12 12 13 14 14 15 15 15 15 16 16 16 16 16 17 17 18 18 18 19 19 19 19 19 19 18 18 19 22 23 23 24 24 24 24 22 21 21 20 20 21 22 23 24 24 25 25 25 25 24 23 24 24 24 24 24 23 23 23 23 23 24 25 25 25 25 25 25 25 24 23 24 25 24 24 26 27 28 27 27 28 28 28 28 28 28 28 27
12 12 13 14 14 14 15 15 15 15 16 16 16 16 17 17 18 18 19 19 19 19 19 19 19 18 17 20 22 23 23 23 23 23 23 21 20 20 20 20 20 21 23 24 24 24 23 24 23 23 24 24 24 24 23 22 22 23 22 22 23 24 24 25 26 26 26 25 24 24 22 23 24 24 25 26 27 28 27 27 27 27 28 28 28 28 28 28
13 13 13 14 14 14 15 15 15 15 15 16 16 16 17 17 18 18 19 19 19 19 19 19 18 17 17 21 22 22 22 22 22 22 21 21 20 20 20 20 20 20 21 22 22 22 21 22 23 23 24 23 24 24 22 21 22 22 23 23 23 23 24 26 27 26 26 25 24 23 22 23 26 26 27 28 28 28 27 27 27 27 28 28 28 28 28 28
13 13 14 14 14 14 15 15 15 15 16 16 16 16 17 18 18 18 18 19 19 19 19 18 18 17 18 22 22 21 21 21 21 20 19 20 19 19 19 20 20 20 20 20 20 20 20 21 22 23 23 23 23 23 21 22 22 22 23 23 22 22 23 27 27 25 24 23 23 23 21 23 26 27 28 29 28 27 27 27 27 27 27 27 28 28 27 28
13 14 14 14 14 14 15 15 15 15 16 16 16 17 17 17 18 18 18 19 19 18 18 17 17 17 20 23 21 20 21 21 20 19 18 19 19 19 19 19 19 18 19 19 19 20 20 20 21 22 22 23 22 22 22 23 23 23 22 22 23 22 23 27 27 25 25 23 23 23 21 23 26 27 28 28 27 26 26 26 26 26 27 27 27 27 27 28
13 14 14 14 14 15 15 15 15 16 16 16 17 17 17 17 17 18 18 18 18 18 17 16 16 17 21 23 20 20 20 20 19 18 18 18 19 20 19 18 18 18 19 19 19 20 20 21 21 21 22 22 22 22 22 22 23 24 23 21 22 23 23 26 27 27 26 24 22 23 22 23 25 26 27 27 27 27 26 26 26 26 27 27 27 27 27 27
13 14 14 14 14 15 15 15 16 16 16 17 17 17 17 16 17 17 17 17 17 17 16 17 17 18 21 22 20 21 21 19 18 17 18 18 18 19 19 19 19 19 19 19 19 20 21 21 21 21 22 22 23 23 21 20 21 23 23 22 22 23 23 23 25 27 26 24 23 23 22 23 24 26 26 26 26 26 25 26 26 26 27 27 27 27 27 27
13 13 14 14 15 15 15 15 15 16 16 17 17 17 16 16 16 16 16 16 16 16 16 17 18 20 22 21 21 21 20 18 17 17 17 17 18 19 19 20 20 20 20 20 20 20 21 21 21 21 22 22 22 22 20 20 21 22 22 22 22 23 23 23 24 26 26 25 25 24 23 24 25 26 26 26 27 26 26 26 26 26 27 27 26 26 26 26
12 13 13 13 14 14 14 15 15 16 16 17 17 16 16 16 16 16 16 16 17 19 20 19 20 22 22 22 22 20 18 18 18 17 17 17 17 18 19 20 20 20 20 20 20 21 20 20 20 20 22 22 23 23 22 22 23 23 23 22 21 22 22 23 24 26 26 25 24 24 23 24 24 25 25 26 26 26 26 26 26 26 26 26 27 26 25 24
13 13 12 12 13 14 14 14 15 15 15 17 16 16 17 17 18 18 18 18 20 22 22 21 22 22 23 22 21 18 18 18 18 18 17 17 18 19 20 20 20 20 21 21 21 21 20 20 20 20 22 23 24 24 24 24 24 24 23 22 22 21 22 24 24 25 26 24 23 23 23 23 24 24 25 25 26 25 25 26 26 26 26 27 26 24 23 23
13 13 13 13 13 13 13 14 14 15 15 16 16 17 19 18 19 19 18 19 22 22 22 22 22 22 23 22 19 19 19 19 19 18 17 17 19 20 20 20 20 20 21 22 20 20 19 19 20 21 23 24 24 24 24 24 23 23 22 21 21 21 22 23 24 25 25 23 22 23 23 23 23 24 24 25 25 25 25 26 26 26 27 25 24 23 23 23
13 13 14 13 13 13 13 14 14 14 15 16 17 18 18 17 16 16 16 18 21 21 21 21 21 20 21 21 18 18 19 19 20 18 16 18 19 20 21 20 20 21 21 21 20 19 19 19 21 22 23 24 24 23 23 22 22 22 21 21 21 21 22 23 24 24 23 21 21 22 22 22 23 23 24 25 25 25 26 26 27 26 25 24 23 23 23 22
13 14 14 13 13 13 14 14 14 14 15 16 17 18 16 15 15 14 15 17 19 20 20 19 20 19 20 20 18 18 18 19 20 19 17 18 19 20 20 20 21 21 21 20 20 20 20 21 22 23 23 23 23 23 22 21 21 21 21 21 20 21 22 21 23 23 22 22 22 22 21 21 23 24 25 25 25 26 26 26 26 24 23 22 22 22 22 21
14 14 14 14 13 14 14 14 14 14 14 15 16 15 15 14 14 14 15 17 19 20 19 18 18 18 19 18 17 18 19 20 20 19 18 18 20 20 20 21 21 21 21 21 21 20 21 23 22 22 22 22 22 22 21 21 21 21 21 21 20 22 22 21 22 22 22 22 22 21 21 22 25 25 25 26 26 26 26 25 23 22 22 21 21 20 20 19
14 14 14 13 13 14 14 14 15 14 14 15 15 14 14 14 14 13 15 18 19 18 17 16 16 17 17 17 17 17 19 20 19 18 17 17 19 19 20 21 20 21 21 21 21 21 21 22 21 21 21 21 20 20 21 21 20 21 22 22 22 22 21 21 21 21 20 21 20 20 20 21 24 25 25 26 26 26 27 25 22 22 22 21 20 19 18 18
13 13 13 13 13 13 14 15 15 14 15 15 15 14 13 14 13 13 15 18 20 19 17 16 17 17 17 17 17 17 19 19 17 16 16 16 17 18 19 20 20 20 21 21 21 20 21 20 19 19 20 19 19 19 20 20 20 20 20 21 21 21 20 20 20 19 19 20 20 20 19 19 22 23 25 26 25 26 26 23 22 22 21 20 19 18 17 17
13 13 13 13 13 13 14 15 14 14 15 15 14 14 13 14 13 13 16 18 20 20 19 17 17 17 17 17 17 18 19 18 16 16 16 15 17 18 19 20 20 19 19 20 19 20 20 19 18 18 18 19 18 19 21 20 20 20 18 18 20 20 19 19 19 18 19 20 20 20 19 19 20 22 25 25 25 26 24 22 21 21 20 18 17 16 16 15
13 13 13 13 13 13 14 14 14 15 15 14 14 14 13 13 12 14 17 18 19 21 20 18 16 16 16 16 17 18 17 17 17 17 15 15 16 18 19 20 20 20 19 19 19 20 20 18 18 18 18 18 19 21 21 20 20 19 17 17 19 19 18 19 18 19 20 19 19 20 20 19 20 22 25 25 24 24 22 21 21 20 19 17 16 16 15 14
12 13 13 12 12 12 13 13 13 14 14 14 14 14 13 12 13 16 17 17 19 21 19 18 16 16 17 17 17 18 17 17 18 17 16 16 16 17 18 18 19 20 19 19 19 20 19 17 18 19 18 19 20 19 19 20 20 17 16 17 18 18 18 18 18 19 19 18 18 20 20 19 20 22 23 23 23 23 21 21 20 19 18 16 16 15 14 13
12 12 12 12 12 12 12 12 13 13 13 13 13 13 13 13 14 17 16 16 19 20 19 18 17 18 18 19 19 18 18 18 18 17 17 17 16 17 17 17 18 19 19 18 18 19 18 16 16 18 19 20 19 16 15 17 17 16 17 18 18 18 18 18 19 19 18 18 19 20 21 20 20 21 23 23 23 23 22 21 20 18 16 15 15 14 13 12
12 12 12 12 12 12 12 12 13 13 13 13 13 12 13 14 16 16 16 17 18 18 19 19 18 18 19 19 19 18 18 18 17 17 18 17 17 17 17 17 18 18 18 18 18 18 18 16 17 18 18 19 19 16 14 14 15 16 18 18 18 19 19 18 19 18 18 19 20 20 20 20 19 21 23 24 24 23 22 21 19 17 15 14 13 12 12 11
11 12 12 11 12 12 12 12 13 13 13 12 12 13 14 15 15 16 16 18 18 18 19 19 18 18 18 18 19 18 18 18 17 18 19 18 18 18 18 19 20 19 18 19 19 18 18 18 18 18 17 17 18 18 16 15 16 17 17 18 18 19 19 18 19 19 19 19 19 18 19 19 19 21 23 25 24 22 21 21 19 16 14 13 12 11 11 10
11 11 11 11 11 11 12 12 12 12 12 11 12 13 14 14 14 16 18 18 18 18 18 18 17 17 17 18 19 18 17 18 17 17 18 18 18 19 20 20 20 19 18 19 19 19 19 18 18 17 17 17 18 19 19 18 17 17 18 18 18 18 18 17 18 19 19 19 18 18 18 18 19 21 23 25 23 20 20 19 17 16 14 13 12 11 10 9
11 11 11 11 11 11 12 12 12 12 11 11 12 14 14 14 14 16 17 19 19 17 17 17 16 16 17 18 19 18 18 18 18 17 17 18 18 19 20 20 19 18 18 18 18 18 18 18 18 18 18 18 18 19 20 19 18 18 19 19 18 19 18 17 18 18 18 19 18 17 18 18 20 21 22 23 21 18 17 16 15 14 13 11 11 10 10 9
10 10 10 10 10 11 11 11 12 12 11 11 13 14 13 14 15 16 17 19 19 18 17 17 17 17 17 18 19 18 18 18 17 17 17 18 18 19 20 20 19 18 17 17 18 18 18 19 19 17 17 18 18 19 20 19 18 17 18 18 18 18 18 17 18 18 17 17 17 18 18 20 21 22 22 23 19 16 16 14 13 12 11 11 10 9 9 8
9 9 9 9 10 11 12 11 12 11 11 12 13 13 14 15 16 17 17 18 18 18 17 16 17 17 17 18 18 18 17 17 16 17 17 18 18 19 20 20 19 18 18 17 18 18 18 19 19 16 16 17 17 18 18 18 18 17 16 17 17 17 18 17 17 18 17 15 16 18 18 19 21 21 22 22 18 15 15 14 13 12 11 10 9 8 8 8
8 8 8 9 10 11 11 11 11 11 11 12 13 13 15 16 17 18 17 17 17 17 17 16 17 17 17 18 19 18 17 16 16 17 18 18 18 18 19 19 19 18 19 18 18 18 17 18 18 18 18 17 14 15 17 17 17 17 16 17 16 16 17 17 16 16 16 15 16 18 18 18 19 19 20 19 17 15 14 13 12 11 10 9 8 8 7 7
8 8 8 9 10 11 11 11 11 10 11 12 12 13 15 16 17 18 17 16 17 17 17 16 17 18 18 17 18 18 16 17 17 16 17 18 18 19 19 19 18 17 18 18 17 18 17 17 17 18 18 16 14 15 17 17 16 16 15 16 16 16 16 17 16 15 15 15 16 17 18 18 19 19 20 20 17 15 14 13 11 11 10 8 8 7 7 7
7 8 9 10 10 11 10 10 10 11 11 12 11 13 14 16 17 17 16 16 17 17 16 16 17 18 18 17 18 18 17 17 17 17 17 17 17 18 18 18 17 16 16 17 16 17 17 15 16 16 16 16 15 16 17 17 16 14 15 16 16 16 16 17 17 16 16 15 15 16 17 18 19 20 21 20 18 16 14 13 11 10 9 8 8 7 6 6
8 9 10 10 9 10 10 10 11 11 11 11 11 13 14 15 16 16 16 16 17 16 16 16 17 16 17 17 17 17 17 16 17 17 17 17 17 18 17 16 17 15 15 16 16 15 15 14 14 15 15 15 16 17 17 18 17 16 15 16 16 16 16 16 16 16 16 15 15 15 15 17 20 19 19 18 17 15 14 11 10 9 8 7 7 7 6 6
9 10 11 9 9 9 9 10 11 11 10 10 12 13 14 15 15 15 15 16 16 16 15 16 16 16 16 16 17 17 16 15 16 16 16 16 17 17 15 14 16 15 15 15 15 15 14 14 13 14 15 15 17 18 18 18 18 17 16 16 16 16 15 14 14 16 16 15 15 14 14 17 18 16 16 15 14 13 12 10 9 8 7 7 6 6 6 6
10 11 10 9 8 9 10 10 11 11 10 11 12 13 14 15 15 15 15 15 15 15 14 15 15 15 16 16 16 16 15 14 14 15 15 15 16 16 14 13 15 15 14 15 15 14 13 13 13 13 15 15 16 18 18 17 17 17 17 17 17 16 15 13 13 14 14 14 15 14 14 16 14 12 13 13 12 11 11 10 9 8 7 7 6 6 5 6
11 11 9 8 8 10 10 11 11 11 11 12 13 14 14 14 13 14 14 14 14 14 13 14 14 14 15 15 15 15 15 14 13 14 14 15 15 14 13 13 14 14 14 15 14 13 12 12 12 12 14 15 16 17 17 16 16 16 15 15 15 14 14 13 12 12 11 12 13 13 13 14 11 10 10 10 10 10 10 10 9 8 8 7 6 6 6 6
11 10 8 8 9 10 11 11 11 11 11 12 13 13 13 14 13 13 13 14 14 14 13 13 14 14 14 14 13 14 14 13 13 14 14 14 14 12 11 12 13 13 13 13 13 12 12 12 12 11 12 13 14 16 16 14 13 13 12 13 13 12 12 12 12 12 11 11 13 12 12 13 11 9 10 10 10 10 10 9 9 8 8 7 6 6 6 6
11 10 9 8 8 9 10 12 12 12 12 12 12 13 13 13 13 13 13 14 14 13 13 13 13 14 13 13 12 13 13 12 12 13 13 13 13 11 10 10 11 12 11 10 11 12 12 12 12 11 11 11 12 13 14 13 12 12 11 12 12 12 12 11 11 11 10 11 12 11 12 13 11 10 11 10 10 10 9 8 8 8 7 7 6 6 6 6
11 10 9 8 8 8 9 10 11 12 13 12 12 13 13 13 13 13 13 13 14 13 12 12 13 13 12 12 12 12 13 12 12 12 12 12 12 11 9 9 10 10 9 9 10 11 11 11 11 11 10 11 11 12 13 12 11 11 12 12 12 12 11 11 10 10 10 10 11 11 11 11 11 12 12 12 11 11 10 8 7 7 6 6 6 6 6 6
10 12 11 9 9 9 9 9 10 11 12 13 12 13 13 13 13 13 13 13 13 13 12 12 12 12 12 12 12 12 13 13 12 12 11 12 13 11 9 9 10 8 8 9 9 10 10 10 11 11 10 11 11 12 12 12 11 11 11 11 11 11 11 10 10 10 11 10 9 11 12 10 11 12 12 12 13 13 11 8 7 7 6 6 6 6 6 6
10 11 11 10 10 10 9 9 9 10 11 12 12 13 13 13 13 13 13 12 12 12 12 12 12 12 11 11 12 11 12 12 12 12 11 11 11 10 10 10 9 8 9 9 10 10 10 10 11 11 10 11 11 11 12 11 11 11 11 11 11 11 10 10 10 10 11 9 9 11 11 10 11 12 13 13 13 12 10 8 7 7 6 6 6 6 6 6
8 9 9 9 9 10 9 8 9 9 10 10 11 12 12 12 12 13 12 11 11 11 11 11 11 11 10 10 10 10 10 11 10 11 11 9 9 9 9 9 9 9 9 9 10 10 10 9 10 10 9 10 10 10 11 10 10 10 10 10 10 10 10 10 10 10 10 10 10 11 10 10 11 12 12 12 10 10 9 8 7 7 6 6 6 6 6 6
8 8 8 8 8 8 7 8 9 9 9 9 9 10 11 11 12 12 11 10 10 11 11 11 10 8 7 8 9 9 9 9 9 9 9 8 8 9 9 9 9 8 8 8 9 9 9 9 9 8 7 8 9 9 10 9 9 9 9 10 10 10 10 10 10 10 10 9 10 10 10 10 11 11 10 9 8 8 8 7 7 7 7 7 6 6 7 7
6 6 7 7 8 7 7 8 8 8 8 9 8 9 10 10 11 11 10 8 9 10 11 10 9 7 7 7 8 8 9 8 7 7 8 7 8 8 8 8 8 7 7 7 8 8 8 8 8 8 6 7 8 8 8 9 8 8 8 8 9 9 9 9 9 10 10 9 9 9 10 10 10 9 8 8 8 7 7 7 7 7 7 7 6 7 7 7
5 5 6 7 8 8 7 7 8 8 8 9 9 9 8 8 9 10 9 7 7 8 9 9 8 8 8 7 7 8 8 8 7 7 7 7 7 7 7 7 7 6 7 7 7 8 7 7 7 7 6 6 8 8 8 7 6 6 7 8 8 8 9 9 9 10 10 10 9 9 9 8 7 8 8 7 7 7 7 7 7 7 7 7 6 6 6 7
Height
826 825 825 824 824 824 823 823 823 822 822 822 821 821 820 820 820 820 819 819 819 818 817 817 816 815 815 814 813 812 810 809 808 807 806 803 803 802 802 802 803 804 805 806 808 808 808 809 809 809 810 810 810 810 811 811 810 814 817 820 818 812 804 799 798 797 796 796 793 790 790 795 796 791 789 790 792 790 787 782 777 776 773 770 769 770 771 771
826 825 824 824 824 823 823 822 822 822 822 821 821 821 820 820 819 819 819 818 818 817 817 816 816 815 814 814 813 812 810 808 807 805 803 801 802 802 801 802 803 803 804 806 807 807 807 807 807 808 809 810 809 810 812 810 811 815 814 816 814 806 797 791 793 792 792 795 793 790 790 793 794 791 789 793 793 788 788 781 775 774 770 767 767 769 769 770
825 825 824 823 823 822 822 822 821 821 821 821 820 820 820 819 819 819 818 818 817 817 817 816 816 815 814 814 813 812 810 808 807 802 799 800 801 801 801 802 802 803 804 806 806 806 806 805 806 808 809 810 808 809 812 810 811 811 812 816 808 798 794 789 790 792 791 791 793 793 790 791 791 789 789 793 792 789 788 782 776 774 769 766 764 764 766 767
824 824 823 823 822 822 821 821 821 820 820 820 819 819 819 818 818 818 817 817 816 816 816 816 815 814 814 813 813 813 810 809 805 799 798 800 801 801 802 802 802 803 804 806 806 806 806 806 806 807 809 811 807 808 811 809 809 807 808 811 800 793 795 791 789 790 789 791 794 794 793 793 789 787 789 792 794 790 783 776 773 770 767 764 762 761 763 765
824 823 823 822 821 821 821 820 820 819 819 819 819 818 818 818 817 817 816 816 815 815 815 815 814 814 814 813 814 812 812 813 804 797 800 800 800 801 801 802 802 803 805 806 806 806 807 806 806 808 811 811 807 809 809 803 804 806 804 802 796 794 796 791 788 789 791 793 795 795 795 792 787 788 788 790 793 785 775 769 766 764 763 763 763 762 762 763
824 823 822 821 821 820 820 819 819 819 819 818 818 818 817 817 816 816 816 815 815 815 814 814 814 813 813 813 813 812 815 814 802 799 801 799 801 801 801 802 802 803 805 806 806 806 807 805 808 811 811 810 807 807 805 798 802 807 801 795 794 793 794 790 788 792 794 796 796 794 791 788 789 789 784 785 786 775 768 767 765 762 761 761 761 762 762 763
823 823 822 821 820 820 819 819 819 819 818 818 818 817 817 816 816 816 815 815 814 814 814 813 813 813 813 813 813 812 814 809 798 800 801 799 800 800 801 802 802 804 805 805 805 805 806 806 809 809 809 809 806 803 801 798 802 807 802 795 793 791 792 791 790 792 794 795 793 790 790 789 792 788 780 779 776 769 766 764 764 761 759 760 760 760 760 760
823 822 822 821 820 820 820 819 819 819 818 818 817 817 816 816 815 815 814 814 813 813 813 813 813 813 813 813 813 812 811 804 798 799 799 799 800 799 801 801 802 804 804 805 804 804 805 807 807 806 809 807 802 801 800 802 803 803 801 795 792 791 791 791 790 791 792 792 790 790 792 788 787 785 779 774 771 768 764 762 761 759 758 758 758 757 757 756
823 822 821 821 820 820 820 819 819 819 818 818 817 816 816 815 815 814 814 813 812 813 812 812 812 812 813 812 813 813 806 799 798 799 798 798 799 799 800 800 802 803 803 804 802 803 804 805 804 803 807 804 801 802 801 806 805 797 797 795 793 793 790 790 790 789 790 788 788 791 791 784 780 782 777 768 766 764 761 760 758 758 758 757 756 754 753 752
822 821 821 821 820 820 820 819 819 818 818 817 816 816 815 814 814 813 812 812 811 811 811 811 811 811 812 811 813 812 801 796 798 798 797 798 798 799 800 800 801 802 803 802 802 803 802 803 802 801 805 803 801 802 801 805 802 795 797 797 796 795 790 789 788 785 786 784 783 788 788 781 778 783 777 764 761 760 759 760 757 757 757 754 753 751 749 749
822 821 821 820 820 820 820 819 819 818 818 817 816 815 814 814 813 812 811 811 810 810 810 809 810 810 811 811 811 807 797 796 798 797 797 797 798 799 800 800 801 802 802 802 802 802 802 802 801 803 807 804 802 802 799 800 799 797 800 800 796 793 788 785 784 782 782 782 779 782 786 782 779 782 775 761 758 758 759 759 757 757 755 751 750 747 746 744
821 821 821 820 820 820 820 819 818 818 817 816 816 814 814 812 811 811 810 809 808 808 808 808 809 809 810 810 805 799 796 797 797 797 797 797 798 799 799 800 801 803 802 802 802 802 803 802 803 806 805 803 802 801 800 798 800 800 802 803 796 790 787 780 777 775 776 779 777 782 789 786 779 774 765 757 756 755 757 757 756 755 752 749 747 745 743 740
821 821 820 820 820 820 819 819 818 817 816 816 815 813 813 811 810 809 808 807 807 806 806 807 808 808 811 806 797 795 796 796 796 796 797 797 798 798 799 800 801 802 802 802 802 802 804 803 804 805 801 803 803 801 801 799 801 802 799 800 798 793 786 773 770 772 774 777 777 784 793 783 771 763 755 752 752 753 756 756 754 752 749 747 745 743 740 737
821 820 820 820 820 819 819 818 818 817 816 815 814 812 811 809 809 807 807 806 805 805 805 806 807 809 810 801 792 794 795 795 796 796 796 797 798 799 799 800 801 802 802 803 803 803 804 804 805 804 802 803 801 799 801 800 800 800 797 796 798 800 788 769 769 774 777 778 776 784 793 780 766 760 753 750 751 754 757 756 754 750 746 744 742 741 738 734
821 820 820 820 819 819 818 818 817 816 815 814 813 812 810 809 807 806 806 804 804 804 804 806 806 807 806 797 792 794 794 794 796 795 796 797 798 799 799 800 801 801 802 803 803 804 804 805 806 806 803 801 802 805 805 801 796 796 801 800 793 793 784 769 767 771 774 777 776 783 788 776 763 758 752 751 752 755 757 756 752 748 744 741 739 738 735 732
820 820 820 819 819 819 818 817 817 816 815 813 812 811 809 808 807 806 805 803 804 803 804 806 806 807 805 796 792 793 793 794 795 795 796 797 798 798 799 800 801 801 802 803 803 804 805 805 805 806 803 802 804 806 806 805 800 794 798 800 792 788 783 773 767 764 766 774 777 780 781 773 763 758 754 752 752 753 755 753 748 744 740 738 736 734 733 731
820 820 819 819 819 818 818 817 816 816 814 813 811 810 808 808 807 806 805 804 804 803 805 805 805 807 802 793 793 793 792 794 794 795 795 796 798 799 800 800 801 802 802 803 804 804 804 804 806 806 804 803 801 802 811 815 806 793 789 790 787 783 782 779 772 763 763 772 775 774 775 772 763 758 756 752 751 753 754 750 744 741 738 735 734 733 732 732
820 819 819 819 818 818 818 817 816 815 814 812 811 809 808 808 807 806 805 805 805 805 806 805 806 809 801 792 793 793 792 794 794 795 796 796 798 799 800 800 800 801 802 804 804 804 805 804 806 807 804 803 800 804 814 811 800 794 790 788 785 780 780 781 775 766 764 768 768 768 769 765 759 755 753 750 748 750 750 745 740 738 736 733 732 732 732 733
820 819 818 818 818 818 817 817 816 815 813 812 810 809 808 807 807 806 806 806 805 803 804 803 802 803 798 791 791 792 793 794 794 795 796 796 798 799 799 799 799 800 802 804 803 803 805 806 810 812 806 801 798 799 802 796 790 790 789 790 791 788 783 779 772 765 763 767 768 768 766 762 759 756 752 749 745 745 745 742 739 735 732 730 730 731 733 736
819 819 819 818 817 817 817 817 816 814 814 812 810 809 807 807 806 804 804 804 800 797 796 797 795 794 792 789 790 792 792 793 793 794 795 796 797 798 799 799 800 802 801 802 803 801 803 809 812 809 801 794 790 788 787 785 785 787 788 791 791 789 784 776 770 764 762 768 769 768 766 762 759 755 750 746 744 744 742 741 738 732 728 728 730 733 735 737
819 819 818 818 818 817 817 816 815 815 814 812 810 808 807 809 808 807 805 800 794 793 792 791 792 791 789 789 791 792 792 792 791 793 795 795 796 798 797 798 802 803 798 797 802 803 806 811 806 798 792 787 784 784 784 785 787 789 791 792 790 788 783 773 769 764 762 771 771 766 766 763 758 752 745 741 742 742 738 737 733 727 727 729 732 735 736 737
818 818 817 818 817 817 816 816 815 814 814 813 811 809 809 811 811 811 810 804 794 791 791 790 790 789 787 789 790 791 793 794 791 792 794 794 796 796 795 796 800 799 795 798 803 807 809 807 798 789 785 784 784 785 788 790 791 793 793 793 792 787 780 772 767 764 768 776 774 768 768 765 756 748 740 737 738 736 731 728 727 727 730 733 735 735 736 738
817 816 817 817 816 817 816 815 815 814 814 813 812 811 811 812 812 811 812 809 798 789 788 789 789 788 787 788 789 791 794 793 791 791 792 794 795 795 794 796 797 795 795 799 800 804 804 795 786 783 783 785 786 787 790 793 792 793 793 794 793 785 782 780 770 767 770 772 771 770 770 762 748 740 737 734 733 730 727 724 726 731 734 735 737 738 739 741
815 815 816 815 816 816 815 815 814 814 814 813 813 813 812 813 812 812 811 806 798 789 787 788 788 788 788 789 790 790 791 789 788 790 791 793 793 793 794 793 794 795 795 794 794 797 794 784 780 783 785 787 791 791 792 794 792 789 788 791 789 781 782 781 773 771 771 768 769 772 770 756 739 737 736 731 731 729 724 725 731 736 738 739 740 743 745 747
814 815 815 815 815 814 815 815 813 814 814 813 814 813 813 813 811 813 812 804 797 791 788 789 789 789 789 789 791 789 788 787 788 791 792 792 792 793 793 790 793 794 791 790 792 793 789 782 783 788 789 790 795 795 791 793 795 790 783 782 781 779 780 781 779 781 781 777 774 777 782 766 742 741 738 730 732 728 722 728 734 736 739 743 744 747 751 752
813 813 814 814 814 814 815 813 812 814 813 813 814 812 813 813 812 814 812 805 797 787 787 790 789 789 789 789 790 789 789 790 790 792 793 794 793 793 793 791 792 794 791 790 792 791 787 785 787 791 793 794 798 797 789 790 796 793 785 781 780 781 784 785 787 790 790 784 774 777 791 779 754 746 738 732 733 726 724 734 736 737 743 747 748 752 756 757
811 812 813 813 813 814 813 811 812 812 811 813 813 812 813 811 813 814 811 810 798 782 784 790 789 790 789 789 789 789 792 792 791 793 793 794 793 793 795 792 792 795 792 795 799 791 785 790 794 795 796 797 799 794 784 786 793 792 789 788 785 785 788 789 791 793 789 782 774 772 784 783 766 748 732 731 733 726 730 741 740 741 746 751 753 755 758 762
809 810 811 811 812 813 812 812 812 810 811 812 811 813 812 811 814 812 815 822 800 776 781 788 788 790 788 790 790 789 792 791 792 794 793 795 794 793 795 791 789 792 792 798 801 789 784 793 796 795 798 797 792 785 780 783 789 790 791 791 787 789 791 789 791 790 783 785 783 774 778 783 769 744 730 732 733 733 740 744 744 747 750 753 756 756 760 764
808 808 809 810 811 811 811 812 812 810 810 811 811 813 810 812 813 809 821 825 795 775 782 786 788 790 787 790 790 788 790 790 791 794 794 795 794 794 796 793 790 791 791 793 795 787 786 793 791 790 795 790 784 784 785 784 787 791 793 791 789 791 789 789 790 787 785 791 786 773 774 781 768 743 733 736 736 739 745 744 746 751 756 759 759 759 763 766
807 808 808 809 810 810 811 811 810 810 810 810 811 811 811 813 813 816 828 818 791 782 784 784 787 788 786 787 788 788 789 789 791 793 794 794 794 795 795 794 794 794 793 793 793 787 786 793 793 790 787 782 783 792 795 792 792 794 792 789 789 786 785 788 786 784 791 790 776 764 762 773 773 749 733 737 737 736 742 745 746 750 757 763 763 765 767 768
806 807 807 808 809 809 809 810 809 809 809 810 810 810 812 812 812 822 823 803 790 789 784 785 789 786 786 787 787 789 790 790 791 792 792 793 794 795 795 796 795 796 797 795 793 789 789 794 792 785 783 781 785 793 797 797 796 794 791 791 791 784 782 787 785 788 796 784 770 764 760 769 776 755 734 733 733 732 736 742 747 752 759 764 767 770 771 771
806 807 807 808 808 808 809 809 808 808 808 809 810 810 813 817 816 816 808 795 794 792 783 787 790 786 788 790 788 790 791 792 792 791 789 790 792 791 792 791 789 795 798 789 787 789 787 786 783 782 784 784 786 790 795 796 795 794 792 794 797 791 788 790 787 787 786 775 772 772 770 773 768 749 736 731 730 734 735 739 747 754 760 765 770 773 774 774
804 805 806 807 807 808 808 808 808 809 809 809 811 810 814 822 817 805 796 794 794 789 785 789 792 790 792 792 790 791 793 791 790 791 789 790 793 788 784 783 784 793 797 790 790 791 784 780 781 784 783 781 784 787 788 789 791 793 790 790 795 795 798 799 790 785 778 773 774 773 775 777 762 743 733 726 729 738 739 742 749 753 759 766 770 773 775 776
803 804 805 806 806 807 807 808 808 808 809 810 811 813 818 820 811 800 795 790 786 786 788 791 794 794 793 791 789 788 792 791 788 791 792 791 794 789 782 781 784 789 794 797 795 792 792 787 780 780 779 778 781 778 775 779 784 786 781 782 788 789 796 799 791 787 783 775 775 776 777 771 757 743 731 726 733 742 745 750 755 758 764 768 771 774 776 777
802 803 804 804 805 805 805 807 807 808 810 811 812 815 815 809 802 799 795 785 782 787 790 791 793 795 793 789 787 786 789 791 790 793 794 791 790 787 781 779 783 787 795 802 794 788 794 786 773 777 778 776 778 773 771 777 783 785 782 785 789 783 784 791 788 784 787 786 778 775 770 754 741 736 728 727 737 746 751 755 760 765 769 772 774 777 780 782
801 802 803 803 803 803 804 805 806 808 809 811 814 813 806 798 792 791 788 782 782 786 791 794 793 797 797 789 786 788 790 793 795 794 792 790 788 784 781 779 781 785 790 797 793 788 793 783 774 782 782 776 778 775 776 780 782 788 790 788 786 781 780 789 789 782 788 796 781 767 762 750 741 736 726 728 741 750 755 758 763 769 772 775 779 781 784 786
800 801 801 800 800 801 803 804 805 807 809 811 811 804 795 789 784 783 783 783 785 785 791 797 793 792 795 790 785 788 792 793 794 794 791 789 787 782 781 779 779 781 782 786 789 788 791 786 776 777 779 778 783 782 780 780 781 787 791 786 783 783 782 786 793 790 790 793 778 765 764 757 753 747 734 735 748 754 757 762 767 772 774 778 782 784 786 786
798 800 799 796 797 799 801 803 804 806 811 811 808 799 791 787 781 780 783 784 785 785 790 796 790 784 788 789 784 785 792 792 791 794 792 790 786 779 778 779 780 783 781 784 790 787 789 792 780 774 778 781 784 785 783 780 781 786 788 784 784 789 787 784 791 797 795 790 779 768 763 758 754 747 736 736 746 754 758 763 769 773 776 779 782 785 786 785
798 800 797 792 794 797 799 802 802 806 812 812 808 800 791 786 781 781 783 784 785 788 791 791 787 784 785 787 785 784 789 790 788 791 792 790 787 777 776 780 782 787 786 785 791 789 790 798 789 779 781 783 783 785 784 781 783 788 789 784 783 787 788 782 782 785 787 788 782 773 766 757 744 736 731 731 739 750 758 762 770 776 778 780 782 784 785 785
798 798 794 789 792 795 798 802 802 806 811 810 804 796 788 784 783 782 782 783 784 787 789 787 787 788 785 784 785 784 786 788 787 789 789 787 785 780 781 784 784 789 789 787 792 794 795 802 799 787 785 786 783 780 778 776 778 784 788 786 784 783 783 782 779 775 778 783 781 779 773 754 737 735 737 739 744 752 758 765 774 778 780 783 784 785 786 786
796 795 791 789 791 793 797 802 802 803 808 805 798 791 786 783 782 783 783 783 783 784 785 785 785 786 785 785 785 783 787 790 789 790 790 787 786 785 788 790 787 789 791 790 792 796 798 802 802 794 788 785 777 770 770 772 772 776 781 782 781 780 784 792 787 773 772 776 776 778 771 751 742 747 747 749 756 760 764 771 777 781 783 786 787 788 788 787
794 791 788 789 792 792 795 799 797 798 801 797 789 786 784 782 782 783 784 784 785 785 786 788 787 786 786 786 785 784 788 793 792 792 792 789 786 786 790 791 789 789 792 792 793 796 799 801 802 798 789 782 774 767 768 771 770 773 776 776 776 778 784 794 790 779 779 777 771 773 768 753 754 761 759 760 766 768 771 774 777 782 784 786 788 789 789 788
788 787 789 791 791 791 793 795 793 793 792 786 782 782 782 782 784 784 784 785 786 787 789 789 787 787 786 785 787 786 788 793 793 790 789 788 785 788 792 792 791 791 791 792 794 799 802 802 802 798 788 780 774 768 768 772 774 777 779 778 782 785 786 791 792 791 796 789 777 778 770 758 764 772 771 773 775 774 775 774 776 780 782 784 786 786 787 787
784 786 790 791 791 791 791 788 786 787 786 782 782 782 780 781 783 784 785 785 785 786 788 788 786 787 787 787 789 789 789 794 794 788 788 789 789 793 796 794 793 794 795 796 797 801 803 800 802 804 799 791 783 774 772 779 783 787 790 788 789 790 791 792 789 790 794 786 778 782 773 761 771 778 774 775 775 775 776 776 776 779 780 783 785 785 787 787
783 787 789 790 790 790 787 781 779 780 781 781 782 780 779 779 778 780 782 782 783 784 787 788 786 785 787 789 793 792 790 794 796 792 791 793 792 796 800 800 797 798 802 804 802 802 803 800 803 809 808 804 796 785 780 785 790 793 794 792 790 790 791 792 790 792 792 781 777 782 774 764 770 773 770 772 774 774 777 778 778 779 781 783 785 786 787 786
780 781 786 790 790 789 786 782 781 778 776 779 781 778 778 777 776 777 780 780 781 784 786 786 786 787 789 790 793 793 789 791 795 793 793 793 793 797 804 804 801 803 807 808 806 805 806 804 803 805 806 802 797 790 786 790 794 794 792 790 790 790 791 794 797 795 791 786 784 781 773 770 769 764 763 767 768 769 772 777 780 781 783 785 785 786 786 786
778 773 777 784 787 787 787 785 784 781 775 776 777 774 774 775 775 776 779 779 779 781 784 785 785 788 789 789 790 790 786 786 790 792 793 791 790 797 804 803 803 808 808 808 808 807 807 805 800 800 802 798 794 791 789 791 794 795 793 792 790 789 790 794 795 789 786 791 789 775 770 774 771 763 760 761 760 760 765 774 779 781 783 785 785 786 786 786
778 771 771 776 779 780 782 782 782 782 779 777 775 772 772 774 773 774 777 780 781 781 784 785 783 785 788 788 789 790 788 788 789 790 792 793 795 799 802 802 805 809 807 807 807 805 808 807 799 797 799 795 792 792 790 791 794 794 793 792 790 789 788 788 788 786 787 791 786 775 772 773 768 762 759 757 757 759 765 773 778 779 782 784 784 785 785 784
778 776 775 777 777 775 778 780 780 782 782 781 780 776 774 774 774 774 777 781 784 784 784 785 785 789 793 793 793 796 794 793 795 794 795 802 805 804 804 804 805 807 806 807 805 805 808 806 800 802 804 799 796 794 793 796 798 796 795 793 791 788 784 783 784 783 784 784 779 775 774 768 762 759 757 759 763 767 771 775 777 780 782 782 783 784 783 782
779 778 777 779 779 780 782 782 781 784 784 785 785 781 777 777 775 775 779 784 786 784 783 785 790 797 801 799 798 800 798 798 803 803 802 807 807 805 806 805 804 807 810 809 808 808 810 806 802 807 811 805 799 797 797 798 799 798 797 792 787 783 781 783 783 780 781 780 774 772 771 764 758 760 764 768 770 771 774 776 776 778 779 780 781 781 780 780
781 780 779 778 778 781 784 782 781 785 785 785 785 782 780 781 777 776 784 789 788 785 783 787 794 800 803 803 802 801 800 803 807 806 806 809 807 807 810 809 810 813 814 812 811 811 813 811 805 810 816 808 799 800 800 798 801 803 799 791 786 784 783 783 780 777 777 775 771 770 768 763 763 767 771 772 773 774 776 776 776 777 778 779 780 779 778 778
783 783 781 779 776 778 782 783 783 783 781 779 780 781 784 786 782 782 788 793 794 792 789 790 795 796 798 801 802 800 800 803 806 806 807 809 809 810 811 811 812 815 814 814 814 812 813 814 811 813 816 808 800 801 802 806 812 807 791 782 782 780 779 777 773 770 768 766 767 768 767 769 772 773 772 774 777 778 777 777 778 779 778 779 779 778 777 777
Wind_Speed
2 1 1 1 1 2 2 2 2 2 3 3 3 4 4 4 4 4 4 5 5 5 5 6 6 7 8 8 9 10 13 13 10 7 8 8 7 7 9 6 4 8 11 8 8 8 7 7 7 6 5 4 3 2 3 3 3 3 4 5 6 6 6 3 4 6 6 7 8 5 2 6 9 5 3 1 7 12 13 15 14 13 15 18 19 11 7 9
3 3 3 2 2 2 2 3 3 3 3 4 5 5 5 6 6 6 6 7 6 6 6 7 7 8 8 9 9 10 14 15 11 12 15 12 8 5 6 8 6 8 11 11 11 10 7 7 7 7 5 3 3 3 3 3 4 5 5 6 6 7 7 5 7 9 8 9 10 10 8 8 10 9 3 6 12 11 14 15 14 15 16 18 19 16 14 11
4 3 4 3 3 3 3 4 4 4 4 4 5 5 6 7 7 7 8 8 8 8 8 8 8 9 9 9 9 10 13 13 10 10 9 7 6 4 3 6 7 8 11 10 10 10 6 4 6 7 6 4 3 4 3 4 5 6 6 7 7 9 10 8 8 10 11 11 12 12 11 11 10 9 7 9 14 13 15 14 14 16 14 12 13 14 15 13
5 4 4 4 4 4 4 4 4 5 4 5 5 5 6 6 7 8 8 9 9 9 9 9 9 9 9 9 8 9 11 10 6 1 7 8 4 2 2 4 6 8 10 7 8 8 5 4 6 7 6 6 5 4 6 5 4 4 6 8 9 9 10 9 10 11 10 9 10 12 12 13 11 8 9 10 12 12 13 13 14 16 14 12 10 10 10 11
6 5 5 5 5 4 5 5 5 5 5 5 6 6 6 7 8 9 9 9 10 10 10 9 9 9 9 8 6 7 7 6 1 6 9 5 2 1 1 3 5 10 10 6 7 7 6 6 6 6 5 6 6 5 8 9 6 5 8 12 13 12 12 10 11 9 5 6 9 13 13 12 9 7 10 12 12 11 12 13 15 17 16 15 14 13 11 9
7 6 6 5 5 5 5 5 5 5 5 6 6 6 7 7 8 9 10 10 10 11 10 10 10 9 8 7 4 3 4 4 1 5 7 4 5 4 2 4 7 12 10 7 8 7 8 7 6 7 6 7 9 8 9 8 7 7 10 12 13 14 13 11 10 3 1 8 11 13 12 11 11 12 13 13 16 17 17 16 17 20 19 19 17 14 12 11
7 6 6 6 6 6 5 5 4 4 6 6 6 7 8 8 9 10 11 11 11 11 11 11 10 9 8 4 2 2 5 7 4 5 7 8 8 6 4 5 9 13 11 10 10 8 8 8 8 7 7 8 9 10 10 6 7 8 11 13 14 14 12 12 11 4 4 12 14 12 12 13 15 15 14 15 17 19 20 19 19 21 20 19 17 15 14 14
7 7 6 6 6 5 5 4 4 5 6 6 6 7 8 9 10 11 11 12 12 12 12 11 10 8 6 1 2 4 7 9 8 7 9 11 10 6 6 7 12 14 12 12 10 8 8 9 10 7 8 9 8 8 6 6 9 12 14 13 13 12 11 11 12 10 10 12 12 12 15 18 18 15 17 22 20 19 21 20 19 20 18 17 15 16 14 14
7 6 6 5 5 5 4 4 4 5 5 6 7 7 8 9 10 11 12 13 13 13 12 11 10 7 4 2 4 7 6 9 11 12 12 11 9 8 8 9 14 14 12 12 10 9 7 7 9 7 8 10 8 8 5 6 8 7 10 12 11 11 11 12 13 14 13 10 10 12 16 19 17 14 17 22 19 17 18 19 18 16 16 15 13 14 14 14
7 6 5 5 4 4 4 4 4 5 5 6 7 8 10 10 11 12 13 14 14 14 13 11 9 7 5 3 6 8 4 5 9 10 10 9 8 8 10 10 14 15 12 11 10 10 8 7 5 1 6 9 8 9 9 8 5 5 8 11 12 14 15 15 16 17 14 13 14 14 16 18 14 10 13 16 12 9 10 13 14 13 14 14 13 13 13 14
6 5 5 4 3 4 5 6 6 7 7 8 9 10 11 11 12 13 13 14 14 14 14 12 9 7 5 5 8 7 1 2 4 6 8 6 5 9 11 10 12 13 11 9 10 11 9 7 2 1 3 4 5 8 9 6 6 8 9 12 15 17 16 17 18 17 14 12 12 13 15 16 13 10 14 18 14 11 11 12 13 13 14 15 15 14 11 12
5 3 3 3 3 4 5 6 8 8 9 10 11 12 13 13 14 14 14 14 14 14 13 11 8 5 4 7 10 8 4 4 6 7 8 6 7 10 12 11 10 10 9 8 9 9 8 5 3 8 5 2 6 7 4 2 5 7 8 11 15 15 16 18 18 16 14 8 3 4 10 12 12 14 19 20 17 14 13 13 13 13 14 14 14 13 11 12
3 2 2 2 3 4 5 7 8 10 11 11 13 13 14 15 15 14 14 13 13 12 11 8 5 5 4 6 6 9 11 10 11 11 9 7 7 8 10 10 10 11 10 6 4 3 6 5 6 11 6 5 8 3 1 2 3 7 9 9 11 12 13 15 12 8 8 5 7 4 7 7 10 14 17 15 11 11 10 11 14 14 14 14 13 12 13 13
2 2 2 2 3 4 5 7 9 10 12 13 14 15 16 15 14 12 12 12 11 11 9 5 5 6 5 5 2 6 9 10 10 8 8 5 4 4 6 8 9 12 11 5 3 3 4 5 7 9 5 7 8 5 5 7 5 8 10 7 7 8 9 8 5 6 4 4 9 8 7 8 10 13 15 9 3 7 9 13 16 16 15 14 13 13 14 15
2 2 2 3 4 4 5 7 9 11 12 13 14 16 15 12 10 10 9 9 8 6 3 3 8 5 5 6 2 2 4 5 5 5 7 6 5 4 5 6 6 7 7 3 3 3 2 5 6 7 5 4 6 8 8 8 6 7 9 7 7 8 8 8 6 8 7 3 9 10 7 8 9 9 11 7 4 8 11 14 16 17 18 16 13 13 15 14
3 3 3 4 5 5 6 7 9 10 12 12 14 16 12 9 9 8 6 5 3 3 5 3 8 5 6 4 3 2 2 3 5 6 7 7 5 3 5 6 4 4 3 2 3 3 4 6 4 4 5 4 5 8 7 7 7 7 8 8 9 9 9 8 5 7 7 2 9 12 8 9 9 9 11 12 14 15 15 16 18 19 19 17 14 12 12 12
4 4 4 5 6 6 6 8 9 10 12 12 15 14 7 6 7 4 4 3 5 8 6 1 5 5 5 2 1 1 2 2 3 3 5 8 6 4 7 6 4 5 5 4 4 5 6 6 2 1 5 7 7 6 6 7 6 6 7 9 10 11 10 8 7 7 3 5 8 12 11 13 13 13 14 16 18 17 16 19 20 18 16 15 13 11 12 11
6 5 5 6 6 7 8 8 9 11 11 12 14 10 4 4 3 3 5 6 8 7 3 2 4 4 3 3 2 1 4 2 3 2 2 7 7 6 6 4 5 8 7 5 5 6 5 5 3 4 6 7 7 6 6 8 8 10 10 9 10 11 12 12 11 9 6 9 13 13 13 16 16 15 14 15 16 15 16 18 19 17 16 15 13 11 10 7
7 7 7 8 7 7 8 9 9 11 11 12 13 8 3 2 1 3 2 3 3 2 0 3 6 4 4 2 1 3 3 2 3 2 4 7 7 7 5 4 6 7 6 4 6 8 5 4 4 5 7 8 9 10 11 13 14 16 14 12 12 13 13 14 15 13 14 16 15 15 16 17 16 16 15 15 16 16 17 17 17 16 15 14 11 6 3 3
7 8 8 9 9 8 9 9 10 12 11 12 13 7 3 2 2 2 4 5 6 8 7 5 8 9 11 6 2 3 1 4 3 2 6 8 8 8 6 5 6 6 6 5 5 6 4 6 6 7 9 11 12 13 15 16 16 17 15 13 14 14 13 14 15 14 14 14 11 12 16 17 17 16 16 17 16 16 18 17 16 17 15 10 3 2 3 4
8 9 8 9 10 10 10 10 11 12 9 9 11 6 1 3 4 2 2 6 11 12 11 11 10 12 13 3 4 2 2 3 5 4 8 9 8 7 7 7 5 5 6 5 3 3 3 7 8 10 13 14 14 12 12 14 14 15 13 12 13 12 12 15 16 15 12 9 9 12 16 17 17 18 20 19 16 15 15 15 17 17 10 2 3 3 3 2
12 11 10 11 9 9 10 10 12 12 8 6 7 3 2 4 3 1 3 6 9 10 12 12 10 11 13 4 3 1 2 6 6 6 9 9 7 6 6 7 7 5 5 6 3 2 5 9 12 14 14 14 14 11 11 13 14 13 10 11 10 9 12 14 12 8 4 3 9 14 16 15 17 21 20 17 13 11 12 15 15 9 3 3 2 2 3 6
12 11 11 12 10 9 9 9 12 11 6 4 4 3 2 2 2 2 2 5 7 8 10 10 9 9 10 5 3 2 5 10 8 6 11 10 6 5 5 6 8 7 6 8 7 7 6 6 8 12 12 12 13 11 11 12 10 10 8 9 9 10 12 10 7 5 3 7 12 14 14 12 15 16 11 10 9 8 12 13 5 4 4 4 5 6 8 9
12 12 12 12 10 8 7 9 11 7 3 2 2 2 1 1 2 2 3 4 6 5 3 2 5 5 5 2 2 4 7 7 5 4 9 8 5 4 6 7 8 9 8 11 12 11 12 7 1 4 8 10 12 11 11 10 8 9 9 9 11 12 13 12 11 11 11 11 9 10 11 8 5 4 4 5 6 7 10 3 7 8 5 7 10 11 11 12
14 13 12 12 10 7 5 9 6 3 3 1 1 2 2 1 2 3 3 4 4 3 2 2 1 1 0 1 1 2 5 4 1 2 4 3 2 3 3 4 6 8 8 11 12 10 12 6 3 4 6 7 9 10 12 10 7 9 9 10 13 13 13 14 14 11 10 6 1 6 8 4 1 1 5 5 6 12 8 7 11 8 8 10 11 12 12 11
14 13 10 10 9 6 5 5 1 2 3 1 1 3 2 2 1 3 2 4 5 1 3 2 2 2 2 2 2 1 3 3 3 3 2 2 3 1 3 1 3 5 3 4 6 5 6 1 3 4 7 7 8 9 12 10 7 7 4 4 8 10 11 12 11 8 6 5 2 3 5 6 4 7 12 8 9 14 3 10 9 9 11 10 11 11 10 10
16 16 13 10 8 5 5 3 0 3 3 2 1 3 3 2 0 2 2 4 5 1 3 1 0 1 1 1 1 2 1 2 3 2 2 1 1 1 3 3 3 2 1 0 3 2 4 4 2 3 6 6 6 8 9 8 8 5 3 5 5 7 9 8 6 6 6 8 9 5 6 8 7 7 7 6 12 9 6 11 9 12 12 12 12 12 11 12
18 18 17 15 12 9 7 4 3 3 1 0 2 4 4 1 2 1 3 5 3 2 2 1 2 1 1 1 2 1 1 0 2 2 3 1 2 2 5 6 4 3 4 4 4 1 3 6 5 6 6 6 8 7 2 6 8 2 4 3 4 4 7 6 5 7 7 8 8 5 7 7 8 5 2 7 10 2 10 10 10 12 12 13 12 11 12 11
13 13 14 14 13 11 11 8 6 4 3 2 3 4 3 1 1 1 2 3 1 1 1 2 3 2 3 3 3 2 1 1 1 2 3 2 2 1 3 4 6 6 6 7 8 4 0 2 2 5 6 6 6 3 2 4 5 1 2 2 2 4 6 5 6 6 6 7 9 6 9 6 8 5 3 5 6 3 9 8 10 11 11 11 10 10 11 9
8 8 10 10 9 10 10 9 10 10 6 4 3 4 2 1 1 3 5 3 1 1 2 2 2 3 4 5 4 4 2 1 2 3 4 2 3 2 1 1 3 6 6 8 11 10 3 3 3 4 8 5 1 3 3 1 0 1 2 5 5 7 6 5 5 4 5 8 7 5 11 8 6 3 1 1 1 7 8 6 9 12 11 10 8 9 9 8
6 6 7 10 10 9 6 5 9 12 10 6 4 2 1 1 2 5 5 1 1 0 3 3 2 2 4 3 2 3 2 2 3 4 4 2 4 5 3 3 3 3 5 6 8 9 6 4 2 4 6 4 1 2 1 2 1 2 4 5 6 5 4 4 4 3 5 6 3 4 4 7 7 3 2 2 5 6 4 6 9 11 11 9 8 8 8 8
6 6 7 11 11 9 6 2 2 7 10 7 3 2 1 2 4 6 4 1 0 2 1 1 1 2 3 1 0 2 1 1 4 4 3 2 3 5 5 4 2 3 6 5 3 4 5 7 8 5 3 5 5 3 2 3 3 3 4 4 5 5 4 5 5 4 6 4 3 4 1 5 9 7 7 6 4 7 5 7 11 11 11 10 8 7 6 7
8 7 8 10 12 10 9 5 1 2 7 6 3 1 1 4 5 4 5 3 1 1 2 3 2 1 2 1 1 2 1 1 4 4 2 1 3 5 8 8 2 2 5 5 5 5 4 3 7 6 2 6 8 5 3 3 5 6 5 4 4 5 6 7 6 6 7 3 3 1 1 5 8 7 11 14 4 10 9 9 11 12 12 11 9 8 7 7
8 9 9 10 12 12 11 9 5 3 5 5 2 1 4 6 3 1 4 6 2 2 2 2 2 1 2 3 2 2 2 2 3 3 2 3 4 5 7 8 7 3 2 2 5 5 7 5 5 7 2 8 11 9 5 1 4 7 3 3 5 5 6 6 6 7 9 7 3 2 2 4 5 3 2 5 7 11 9 11 11 11 11 10 9 8 7 7
8 9 10 11 12 14 12 11 8 5 5 4 3 5 7 6 3 2 5 6 3 2 2 1 2 1 4 6 4 3 2 2 2 1 2 4 5 5 6 4 7 5 1 1 3 2 7 7 3 3 1 7 10 8 3 1 3 3 1 2 4 3 4 4 4 5 6 8 7 5 4 6 6 5 5 3 10 13 10 12 11 10 10 8 8 8 6 6
7 7 9 11 14 14 13 11 10 8 6 3 4 7 7 5 4 4 3 4 3 3 2 1 2 3 6 6 5 5 3 1 1 1 3 4 6 7 7 4 4 8 5 2 3 2 6 7 3 5 1 4 3 2 1 1 3 2 2 3 2 1 1 3 5 3 2 7 8 6 7 8 8 9 9 6 8 12 10 11 10 9 9 8 7 6 5 5
7 6 5 10 15 15 14 13 12 10 5 3 7 8 5 6 8 7 2 1 1 3 2 3 3 4 5 5 5 6 5 3 3 3 3 3 4 5 7 4 2 7 6 3 3 3 6 9 3 4 6 3 3 3 1 2 2 2 2 2 0 1 1 3 6 5 6 10 7 7 12 11 9 7 1 7 9 9 9 9 9 8 8 7 6 5 4 4
6 4 5 11 15 14 15 17 15 10 3 5 12 10 5 6 9 7 3 3 0 3 5 6 4 4 6 7 6 4 7 5 4 4 4 4 3 3 4 4 2 3 2 1 2 2 2 8 7 3 4 1 3 1 4 2 1 1 2 2 1 3 3 4 6 5 8 11 7 9 13 11 9 9 6 5 9 10 9 9 8 7 7 6 6 4 4 3
6 3 3 9 14 14 17 19 14 7 3 9 12 8 5 7 8 5 3 3 1 3 6 8 6 6 7 8 7 3 7 6 5 4 5 4 4 3 1 2 2 5 5 2 2 2 2 5 6 2 3 1 2 2 5 5 2 1 2 3 2 2 4 6 6 5 8 11 9 10 10 9 8 8 11 7 8 12 9 8 7 6 6 5 4 4 2 2
5 1 1 5 13 17 19 16 10 5 6 8 9 6 4 6 5 3 4 4 3 3 5 9 8 8 9 9 9 7 6 7 7 7 6 5 6 3 3 3 2 4 3 1 0 2 1 3 5 2 1 2 4 5 6 8 5 3 4 5 4 3 3 4 4 5 7 9 9 9 8 8 5 4 5 5 8 8 7 8 6 5 6 4 3 3 2 2
4 3 1 7 15 21 21 12 6 6 6 6 8 10 8 6 5 5 4 4 5 2 1 6 9 8 8 9 9 8 5 6 8 8 7 7 9 5 3 4 3 3 1 2 1 1 1 2 5 6 6 7 9 8 7 9 9 7 7 7 8 7 4 6 8 6 6 7 8 9 10 7 1 5 6 8 7 6 7 8 7 6 5 4 3 2 1 1
5 3 2 8 18 24 19 9 6 6 6 7 7 8 6 4 6 7 5 5 7 3 1 3 7 7 8 9 8 8 6 5 7 7 6 7 10 6 1 3 3 3 3 4 2 0 1 1 5 8 9 11 14 15 11 8 8 8 8 8 9 8 6 7 9 5 4 6 6 8 12 6 3 6 6 7 7 7 7 7 7 6 4 4 3 2 1 0
5 3 4 10 21 23 13 7 8 7 7 6 4 4 3 2 3 5 5 6 6 3 2 4 5 7 8 7 7 9 7 5 6 8 8 8 7 2 4 4 3 2 3 4 2 1 1 2 5 7 7 9 14 14 9 4 5 7 5 4 4 6 6 6 6 5 4 5 6 8 10 3 4 6 7 8 7 7 5 5 6 4 3 3 2 1 0 1
3 2 3 8 20 21 11 7 9 9 9 8 7 8 7 5 6 6 7 8 6 4 5 5 5 6 5 2 2 6 6 4 5 6 6 5 2 4 7 7 5 3 2 3 2 1 1 3 4 5 6 6 8 10 5 1 1 1 2 4 5 6 8 7 5 5 4 5 8 9 7 1 2 3 4 4 3 3 3 3 4 3 3 3 2 1 1 2
3 3 1 3 11 14 8 5 6 8 11 13 13 13 12 9 8 9 10 10 8 6 5 4 4 5 5 3 2 4 6 5 4 3 3 3 1 4 6 7 5 3 2 5 5 2 3 4 4 6 8 8 8 7 4 1 2 2 3 6 8 8 9 8 6 7 7 6 7 8 6 4 3 2 3 4 5 5 5 5 4 4 4 4 3 3 2 2
3 3 3 2 3 6 5 3 4 7 10 12 11 11 14 12 7 6 9 11 10 9 7 6 4 4 6 7 6 7 9 9 7 5 4 4 2 2 4 4 5 4 3 4 4 1 3 4 6 8 9 10 10 9 8 8 8 9 9 9 9 9 9 7 7 9 8 6 7 9 10 10 10 11 9 5 5 6 5 6 5 4 4 4 4 3 3 2
2 3 5 5 3 5 6 5 6 7 7 8 7 7 12 14 9 7 7 6 6 7 8 7 7 7 8 9 9 9 10 10 9 8 8 8 5 1 3 4 5 5 3 2 1 1 3 6 9 10 11 13 14 15 15 14 13 13 14 14 14 12 11 9 12 12 9 8 8 9 12 13 12 14 14 11 12 10 4 7 6 5 6 5 4 4 4 4
2 1 2 1 3 6 6 5 7 9 9 9 7 8 11 13 13 9 5 3 3 4 5 6 8 9 5 5 7 7 7 8 8 8 8 7 4 0 2 3 4 3 2 2 2 2 4 9 12 13 13 15 16 17 16 14 14 13 15 16 17 17 17 15 16 15 12 11 12 12 18 20 15 17 20 17 12 5 4 7 5 5 5 5 5 5 6 6
1 0 1 2 1 3 2 2 6 9 11 9 7 9 12 12 13 8 2 3 5 5 6 8 7 4 2 1 2 4 6 6 5 4 1 1 0 2 3 2 2 3 3 2 2 2 4 8 9 8 10 12 14 16 15 13 13 14 16 18 19 21 23 21 19 19 19 20 20 21 25 25 21 20 17 8 4 5 6 5 4 5 4 5 5 6 7 7
1 1 1 1 0 1 3 3 6 7 7 6 7 9 10 13 15 8 2 2 6 6 7 7 5 5 4 2 3 4 4 2 2 2 1 1 3 3 3 4 1 2 1 1 2 3 4 6 4 3 6 10 12 13 14 14 15 16 17 20 22 24 25 22 20 19 19 20 21 23 24 21 15 8 3 5 6 4 3 3 3 2 2 3 4 5 6 7
2 3 2 1 2 3 3 2 5 6 5 6 8 7 7 10 12 8 2 2 2 5 5 4 5 5 4 3 4 5 2 2 1 1 1 1 4 2 1 1 0 1 0 1 2 2 4 5 4 4 7 8 9 13 14 13 14 15 18 21 23 22 20 18 16 15 15 17 19 19 17 11 3 4 5 5 5 4 3 2 1 1 2 3 5 6 7 8
0 2 2 2 2 4 4 3 5 8 7 6 7 5 3 3 3 5 4 3 4 2 2 3 5 4 4 5 5 4 2 3 2 1 2 1 2 2 3 4 3 3 4 3 4 4 4 5 5 6 7 6 8 11 9 7 9 12 13 16 18 18 18 17 16 17 18 17 15 12 8 2 1 1 1 4 5 5 4 4 3 3 5 6 6 7 9 9
Wind_Direction
345 319 295 295 292 293 294 290 281 281 276 276 278 273 275 278 282 286 288 291 295 301 303 311 313 318 323 325 330 328 325 321 308 269 246 271 282 262 251 238 219 207 201 174 165 176 174 193 189 181 201 188 213 208 155 199 212 223 233 247 255 257 272 274 265 287 295 297 300 288 256 277 288 261 184 258 249 254 267 267 261 245 238 246 254 259 237 239
307 300 299 293 283 284 282 283 286 294 296 295 293 289 290 291 295 296 296 297 298 301 303 308 310 314 316 320 327 325 321 314 290 264 259 265 263 254 251 237 228 198 189 181 183 193 194 202 187 187 213 204 189 169 175 187 192 224 247 258 255 260 281 288 280 291 291 287 295 298 290 275 279 285 283 271 271 271 271 269 267 259 246 246 250 248 238 231
304 300 302 298 295 291 288 289 290 297 301 301 297 293 294 295 297 298 299 301 301 304 306 308 310 312 313 320 323 323 324 311 285 274 254 224 206 223 254 232 230 200 186 191 200 208 224 226 189 195 225 232 206 182 209 182 184 231 241 256 258 263 275 272 275 283 284 290 291 290 292 282 275 281 274 264 276 277 271 269 269 270 265 259 252 248 242 225
315 308 308 305 302 301 302 302 299 299 300 305 305 298 297 298 295 293 295 296 298 300 303 307 309 311 314 320 322 328 324 296 283 230 153 154 164 194 255 233 223 190 181 202 213 211 230 228 196 212 238 246 228 205 233 198 178 236 223 247 266 277 280 270 280 284 282 292 288 287 289 281 279 278 260 258 274 271 262 263 265 273 286 293 291 291 273 233
318 314 313 310 308 310 308 308 308 306 308 314 314 310 305 301 297 294 294 295 297 299 302 306 308 309 314 322 323 331 320 290 23 120 154 166 208 217 260 240 204 179 180 200 202 197 212 214 203 222 237 252 244 220 242 221 203 254 236 247 265 274 277 274 288 293 289 296 284 280 279 280 287 273 252 249 259 260 262 274 282 286 294 300 299 302 291 247
323 321 315 315 315 315 315 317 322 323 326 322 318 316 309 305 302 299 299 298 299 301 304 304 307 310 312 321 317 311 295 284 81 160 192 225 260 282 267 226 188 177 183 194 191 192 206 208 206 223 233 251 252 240 254 229 198 252 256 254 262 268 273 280 292 306 278 279 273 275 281 287 282 271 264 251 249 256 263 274 284 287 289 294 293 289 276 254
329 327 320 323 322 320 325 326 333 335 329 323 318 315 310 308 304 302 302 299 299 300 300 301 303 305 308 320 305 235 244 268 270 208 229 253 256 271 245 211 184 178 186 196 192 195 205 210 216 236 249 252 260 254 260 245 205 243 267 268 270 274 275 281 287 273 247 264 267 277 286 281 271 273 279 267 257 260 267 271 273 278 283 286 286 279 269 260
329 327 326 330 329 334 339 338 340 331 324 321 315 309 306 305 301 301 298 294 295 292 292 294 293 298 302 281 251 255 237 253 268 254 258 260 254 251 222 194 183 182 193 203 199 207 215 221 228 240 253 255 268 263 256 252 238 243 257 267 273 274 273 277 280 269 256 257 262 270 272 267 265 274 280 274 269 265 267 270 270 273 279 279 276 273 269 264
325 328 329 332 340 351 355 349 337 327 325 320 314 309 306 302 299 297 294 291 289 286 285 283 282 282 273 221 257 275 251 241 255 269 270 259 253 234 204 189 188 187 200 212 212 221 221 232 241 240 261 274 275 267 253 244 255 255 260 274 284 284 282 279 276 268 259 257 255 255 259 263 269 278 274 269 271 270 263 265 271 273 276 277 273 269 267 266
324 333 333 334 346 3 9 1 350 342 335 327 322 316 310 306 302 298 296 294 289 287 284 277 272 259 244 225 246 264 261 231 243 264 269 256 246 210 191 194 193 192 205 214 216 223 225 248 269 287 281 283 270 264 252 240 273 308 292 292 288 285 283 276 272 267 260 260 255 246 255 267 275 275 268 268 273 276 265 264 274 279 279 278 275 268 264 264
325 333 342 349 4 18 18 10 4 358 348 341 333 325 320 313 306 301 297 294 291 289 286 280 267 245 240 234 243 259 217 190 238 262 264 251 219 191 192 200 193 200 215 214 216 226 239 257 293 58 278 284 271 262 244 246 296 300 300 299 284 279 278 269 265 263 255 258 256 246 255 269 273 255 252 266 270 269 272 273 276 279 280 279 277 273 264 258
329 333 351 13 33 25 17 9 8 1 352 345 335 332 326 317 311 306 300 295 291 287 283 279 261 224 234 246 243 249 230 224 259 269 262 238 204 195 200 201 193 207 227 232 230 230 243 256 229 236 251 309 283 276 247 274 306 286 291 290 283 281 275 268 264 259 251 244 200 234 257 258 254 242 241 252 260 263 265 273 279 278 281 281 279 276 266 261
338 353 11 24 36 20 7 5 4 358 352 343 337 335 326 319 314 307 303 299 294 288 282 273 241 195 231 266 238 231 238 245 259 267 260 236 212 208 210 208 201 208 225 250 265 239 237 241 236 246 265 271 268 314 327 258 266 277 278 272 282 285 275 271 262 245 241 207 135 192 268 262 255 256 255 257 260 259 256 275 289 288 286 283 280 277 270 267
334 341 2 19 26 11 360 1 358 354 349 342 339 334 326 322 316 311 307 300 293 287 281 252 190 174 227 265 207 210 237 246 250 254 248 224 183 195 209 213 212 214 222 247 301 292 245 231 240 254 269 257 269 335 296 255 240 273 278 259 261 272 276 277 234 179 206 168 156 207 263 277 275 273 274 283 271 255 264 281 290 289 286 282 276 274 270 269
316 323 340 4 9 358 358 357 352 351 348 344 340 334 330 326 322 320 310 300 298 285 272 185 173 173 261 257 194 174 237 233 211 218 231 199 171 193 185 188 200 209 217 229 257 262 207 196 220 248 247 236 271 288 275 264 253 261 274 262 248 257 276 278 221 195 232 200 171 204 261 281 276 277 279 290 275 262 273 281 284 281 280 280 278 273 271 273
325 328 341 348 345 343 352 352 348 350 349 346 341 336 333 334 336 331 320 313 306 142 122 149 177 194 288 262 146 129 189 194 196 220 230 196 193 201 144 147 157 167 190 190 201 183 175 195 207 273 258 233 250 258 264 272 260 245 250 261 264 269 282 285 260 248 262 204 182 212 257 284 279 286 288 286 282 280 281 282 280 276 276 279 280 278 276 281
334 331 345 339 332 337 344 347 347 348 349 348 343 338 336 346 349 357 25 69 105 115 117 161 171 202 271 238 202 253 118 155 199 224 231 197 190 170 147 149 146 144 138 132 162 167 178 196 189 281 244 242 248 251 261 261 260 259 254 261 265 267 281 287 292 298 257 187 223 233 245 266 274 282 280 277 279 280 280 279 277 277 280 281 281 282 283 288
325 323 335 329 331 343 346 348 346 346 352 350 343 337 332 347 19 75 76 92 101 105 114 139 172 223 232 186 247 37 91 111 171 151 195 181 172 170 172 168 151 154 149 145 179 183 185 194 199 235 230 233 239 232 242 250 267 284 285 285 283 278 286 290 290 301 280 255 270 271 263 272 283 287 283 279 280 276 271 273 277 282 284 280 280 283 287 300
316 318 325 329 339 352 354 351 348 350 354 352 346 336 290 281 128 132 164 158 139 182 257 156 194 258 299 265 195 100 95 127 143 127 146 153 158 170 184 179 164 174 177 171 186 182 190 195 191 230 234 232 230 223 236 254 271 286 290 290 289 286 284 286 285 289 293 286 284 284 282 288 293 293 291 284 281 277 271 273 281 283 278 275 281 292 316 1
300 304 316 328 336 349 353 346 349 354 355 356 346 317 257 264 246 189 202 228 243 258 287 260 229 267 293 296 122 113 130 180 175 137 153 153 155 167 172 170 169 200 221 205 181 168 191 215 205 221 236 246 248 244 252 262 274 284 287 282 280 281 280 282 283 285 292 290 282 284 288 293 297 297 289 280 278 278 275 274 273 271 271 278 297 47 41 15
280 287 299 314 324 336 339 336 345 351 356 2 344 305 303 356 310 328 318 264 252 249 260 259 252 261 270 283 116 123 11 215 204 147 160 160 162 183 175 172 188 212 217 194 140 125 193 227 227 232 243 255 265 273 278 278 279 280 281 280 277 279 281 282 284 289 299 296 284 288 290 292 296 291 281 279 279 276 273 268 262 266 280 333 70 51 5 39
268 272 282 289 299 320 328 332 338 343 353 5 350 337 47 5 310 332 325 284 265 246 245 251 253 254 257 252 137 136 334 261 230 150 159 166 180 210 174 175 217 221 178 162 160 192 216 233 236 237 246 258 265 276 281 276 275 274 272 275 276 281 285 285 287 292 318 308 291 297 298 294 287 277 277 279 269 256 260 261 262 277 332 45 29 15 85 96
263 267 277 278 279 300 315 325 328 335 351 358 360 26 38 311 266 228 247 281 279 247 232 242 244 246 254 246 157 190 242 251 247 175 161 171 190 216 197 200 233 239 190 192 226 238 241 247 237 240 249 258 262 263 266 267 264 259 261 271 275 281 284 288 297 306 307 286 290 301 297 287 276 264 263 266 242 233 257 264 285 29 53 54 51 68 85 82
261 265 273 274 271 282 300 319 320 321 341 354 20 24 12 255 228 209 241 271 273 246 209 229 252 255 267 267 140 211 229 238 248 175 160 185 192 173 217 230 236 244 226 225 238 244 258 273 144 230 244 253 263 264 259 261 262 258 256 261 267 275 282 291 304 310 304 288 290 309 300 286 277 221 187 216 219 253 264 226 88 79 84 85 80 72 66 63
254 259 267 268 262 261 292 313 308 264 294 312 123 12 17 322 209 198 258 270 254 241 154 146 216 229 130 109 144 236 240 218 197 93 138 223 237 153 221 237 234 249 238 238 246 251 264 272 121 206 237 243 256 260 256 256 270 269 256 256 266 280 289 296 307 314 308 291 34 3 321 295 96 217 271 273 262 272 268 114 103 103 100 93 84 71 61 58
245 251 258 257 253 249 278 298 231 232 291 208 194 346 351 321 248 207 265 278 258 217 135 176 193 172 138 133 166 195 229 191 84 71 138 288 309 256 267 185 200 272 270 247 261 262 262 240 121 226 241 242 243 254 256 251 262 269 274 292 286 292 297 300 310 313 300 292 317 1 306 284 283 272 275 277 264 264 261 91 98 105 97 84 73 67 55 49
242 247 244 240 242 244 265 296 233 272 282 167 259 333 324 315 207 207 261 272 266 134 120 195 225 189 124 80 214 205 204 139 105 107 135 308 305 227 259 212 183 246 136 253 278 239 209 196 150 212 228 235 233 251 251 229 245 268 15 1 320 305 301 304 309 292 283 295 289 245 229 266 284 281 266 234 250 256 99 93 104 105 95 82 74 70 60 49
243 243 240 240 244 240 245 270 281 270 262 83 321 318 326 325 176 221 276 277 286 104 111 105 109 118 102 110 243 235 34 143 159 97 82 274 237 180 236 244 267 246 175 210 251 174 163 195 193 186 203 225 228 249 230 195 237 286 52 353 327 308 294 298 292 283 286 297 290 214 194 259 283 294 253 209 245 252 97 102 107 99 87 86 83 80 75 62
239 236 235 238 240 235 236 242 243 244 253 281 300 300 319 339 194 265 259 267 305 102 90 102 136 142 136 165 201 169 131 219 345 71 119 188 226 250 253 263 296 274 214 221 248 273 165 176 226 200 209 239 236 272 28 200 237 36 71 286 277 255 259 266 265 280 288 275 277 232 193 242 294 298 248 223 243 131 110 107 103 93 77 79 83 81 81 74
236 233 230 223 220 222 227 234 236 240 250 253 266 287 295 192 227 228 214 227 329 61 117 152 158 146 172 191 185 176 193 170 85 123 162 171 176 209 265 264 289 272 242 237 250 261 240 83 12 241 233 256 94 65 28 360 319 48 276 280 276 250 237 244 246 263 274 262 286 254 196 217 293 316 288 287 128 132 134 135 124 109 92 83 77 76 74 70
220 227 218 203 204 208 209 234 239 234 236 238 233 243 246 210 222 226 219 229 327 170 144 161 145 154 200 224 174 173 196 162 142 169 190 167 174 198 217 211 231 249 247 243 243 248 227 190 223 224 230 245 152 131 97 83 98 243 264 286 294 268 223 232 224 201 259 267 352 34 181 224 254 261 348 31 115 137 143 145 136 114 103 98 82 73 67 63
201 211 206 201 205 206 200 217 264 230 221 216 205 198 223 221 220 223 213 77 83 205 173 113 112 165 195 274 187 160 163 178 175 200 218 187 198 211 216 224 248 264 264 274 269 251 232 216 209 194 195 213 212 217 179 164 186 218 242 254 283 288 261 262 252 234 263 266 82 59 30 251 253 261 274 262 150 120 108 122 130 119 109 105 90 78 67 62
204 207 207 207 208 208 208 211 316 253 202 193 202 201 194 219 228 219 197 201 251 128 63 51 74 153 171 219 232 141 163 214 162 195 230 200 235 239 230 228 218 284 278 295 313 295 280 227 182 182 195 195 199 213 226 211 190 195 213 223 248 280 281 278 275 268 271 271 108 132 289 274 264 262 252 244 173 107 104 105 115 118 114 110 100 88 73 64
219 217 219 217 214 215 215 216 237 256 196 192 206 166 196 217 232 11 200 211 228 79 82 68 90 163 213 247 260 125 221 241 137 170 209 197 238 258 253 225 191 206 275 279 292 276 280 291 177 180 163 162 188 224 256 5 173 197 211 235 248 263 265 273 279 275 281 297 294 224 235 273 274 352 287 226 114 103 107 99 99 103 103 104 97 85 72 64
229 227 229 229 224 221 215 213 217 212 188 196 208 201 214 216 174 172 213 214 210 112 108 96 105 237 266 257 231 166 216 254 112 137 216 222 251 268 280 250 189 192 176 259 280 253 268 281 159 128 86 163 188 226 241 59 209 197 103 250 256 254 238 264 283 279 294 300 282 242 240 264 272 313 295 211 109 101 106 102 100 97 94 95 86 77 67 60
238 235 235 232 229 222 212 208 202 186 172 188 219 215 224 234 213 207 210 217 206 127 114 218 166 233 271 262 222 187 179 211 172 214 216 222 257 258 263 282 183 181 177 206 266 256 266 277 111 95 284 197 195 265 169 255 264 145 147 226 251 331 257 272 275 256 252 274 272 257 262 270 274 279 261 211 114 100 109 107 102 100 96 89 80 76 69 59
228 225 229 228 227 219 208 204 193 176 158 209 230 229 228 232 235 233 192 130 196 121 159 233 193 209 252 261 237 190 168 185 193 210 230 220 246 239 234 256 167 188 210 225 263 252 269 280 247 199 248 234 46 356 277 296 309 157 199 249 6 317 254 254 263 257 248 259 263 258 266 276 278 281 205 130 123 118 120 112 106 106 101 91 87 85 80 73
197 196 234 236 230 216 202 198 183 157 131 236 237 243 248 235 238 235 172 103 118 167 197 230 223 230 251 263 269 185 164 194 184 185 238 244 229 210 232 254 124 132 281 275 244 253 282 282 272 243 272 284 80 305 245 223 195 204 292 335 314 273 262 243 253 261 259 263 265 254 260 270 265 264 269 216 164 141 127 121 117 112 108 104 104 102 92 87
168 164 253 235 218 200 189 186 169 141 181 233 237 243 248 243 241 227 154 121 150 177 213 240 239 244 250 255 271 215 175 213 227 221 245 241 225 211 234 297 85 66 24 38 245 323 15 281 280 51 46 51 121 216 235 222 161 95 297 274 231 268 278 261 258 261 262 265 268 259 254 258 261 275 290 273 159 143 139 132 120 107 106 106 110 114 102 92
170 200 266 191 188 181 176 173 161 160 203 225 235 236 239 247 241 202 176 199 209 190 227 238 231 239 247 247 257 249 216 231 242 245 248 237 247 250 74 40 45 72 44 51 93 353 16 269 276 297 16 259 229 221 243 258 253 222 235 239 224 228 264 274 254 238 253 263 264 265 258 252 269 330 360 58 107 129 132 124 116 103 102 97 94 98 78 75
193 238 203 168 173 167 161 165 177 188 204 227 236 235 240 249 240 216 196 208 224 229 276 244 237 244 250 250 252 249 242 244 241 247 251 243 252 258 76 39 14 58 22 279 220 252 254 242 266 273 269 262 262 266 275 278 277 270 259 255 257 258 258 261 252 229 232 253 254 261 262 251 318 17 47 77 82 86 104 116 117 109 109 105 94 83 66 71
208 223 149 158 168 163 158 176 197 189 212 227 227 229 232 239 239 231 211 204 219 224 22 250 243 248 249 251 255 253 249 248 244 245 246 240 245 248 65 39 21 36 340 295 278 33 20 249 258 266 264 268 280 288 286 270 264 266 264 266 273 274 264 260 268 272 266 272 273 265 261 252 65 35 40 60 65 73 87 101 108 114 122 119 119 119 98 39
211 196 120 153 170 169 169 195 200 200 217 220 221 221 199 189 231 230 217 212 211 207 210 221 228 238 245 248 252 253 253 249 245 243 243 248 250 260 39 29 24 25 333 296 270 110 87 242 249 258 264 275 284 284 281 270 258 250 251 293 307 287 285 285 283 289 282 279 283 270 262 267 51 36 38 51 61 71 75 89 106 123 131 125 137 130 60 301
198 152 101 163 179 183 191 205 203 210 216 218 229 228 222 225 227 221 217 212 203 200 212 220 229 234 239 251 243 247 252 254 251 245 242 258 275 69 48 20 11 17 348 333 355 55 262 259 268 284 285 284 279 269 257 90 33 270 271 310 309 289 290 298 288 276 252 233 246 258 263 279 48 52 70 78 92 118 134 136 140 156 157 160 176 176 251 268
161 153 90 172 190 198 214 227 221 221 218 222 231 232 233 235 226 224 227 222 214 211 211 219 231 231 231 221 206 238 241 240 254 254 228 242 255 73 52 27 24 42 38 27 30 352 275 268 274 279 276 272 271 271 277 356 360 310 276 276 281 278 280 290 292 278 267 249 248 262 277 289 289 250 184 179 187 183 177 175 175 173 170 172 180 196 229 247
179 183 167 159 205 226 241 262 257 239 222 222 229 232 233 234 221 209 224 233 231 225 230 239 230 228 237 232 233 248 243 232 233 238 233 237 233 85 71 58 58 63 54 35 29 326 268 262 252 250 255 264 269 279 299 307 295 288 288 282 278 272 269 274 268 261 274 294 277 265 273 283 287 285 273 236 228 239 209 184 179 171 167 174 185 198 212 227
239 203 173 166 189 221 230 233 232 236 231 226 225 225 232 236 232 205 205 226 231 222 232 244 233 229 234 231 236 250 250 240 233 234 247 256 252 148 104 94 71 64 68 55 54 223 257 267 260 255 256 262 269 276 284 287 282 282 285 283 278 275 269 259 254 262 285 295 276 272 282 282 282 288 289 285 283 283 227 172 179 178 175 182 191 204 222 235
253 213 154 155 199 206 217 216 205 215 230 234 233 235 235 236 234 226 207 178 174 205 227 238 233 231 233 235 236 241 248 250 245 240 248 257 259 182 108 110 95 100 147 176 182 215 269 272 271 272 271 269 273 277 278 279 281 283 281 279 279 277 271 262 261 270 279 273 272 286 288 283 282 283 284 287 295 310 117 140 160 162 171 187 198 215 231 236
245 243 45 7 249 195 173 143 173 201 221 228 235 243 241 235 231 228 182 167 191 205 227 235 224 197 109 86 205 223 243 254 256 249 227 94 21 300 284 253 157 133 156 195 213 238 265 266 270 284 284 277 273 273 274 278 280 277 274 273 273 270 267 267 272 275 272 270 273 277 277 276 278 281 284 300 11 68 98 120 138 150 173 196 214 234 244 243
279 299 97 98 165 105 72 111 164 188 209 212 225 241 242 239 237 228 138 206 222 205 215 229 198 129 101 127 173 217 250 292 309 292 45 35 287 290 287 270 240 113 106 216 248 266 268 266 280 319 293 272 265 267 270 272 272 273 271 268 265 265 266 269 273 274 271 270 269 267 268 271 276 288 338 64 79 83 89 102 122 149 180 217 251 267 268 262
336 348 352 215 189 153 132 155 179 193 205 205 215 230 231 234 238 230 152 51 257 232 234 216 157 127 129 168 210 244 259 56 351 283 96 274 282 306 327 276 39 50 313 225 242 273 273 273 288 292 274 261 258 268 274 278 278 273 265 260 257 260 265 265 264 263 263 266 266 265 269 275 300 46 70 85 78 64 54 36 18 348 326 305 294 294 295 288
217 334 313 267 204 166 161 157 186 205 218 212 209 214 202 183 189 197 190 98 67 20 315 171 163 185 224 228 247 273 332 47 32 56 90 216 273 265 244 246 249 251 249 249 264 266 256 266 280 275 270 265 263 273 288 305 286 268 255 249 247 253 259 258 258 259 257 261 268 272 276 276 90 54 95 91 67 38 5 349 343 329 322 316 308 301 299 297